User: anonymous   Login
Location: Napier
(39.4830°S, 176.9170°E)
Time: 04:30:11
(UTC+13:00)
Language:

H-2A R/B - Orbit

View from above orbital plane
View from above orbital plane
View from above satellite
View from above satellite

Ground track
Ground track

The orbit data is extracted from the following two-line orbital elements,

1 27601U 02056E   19079.57631198 +.00000032 +00000-0 +26589-4 0  9994
2 27601 098.2880 132.1737 0072073 190.3082 322.6230 14.31883427849593
Epoch (UTC): 20 March 2019 13:49:53
Eccentricity: 0.0072073
inclination: 98.2880°
perigee height: 734 km
apogee height: 837 km
right ascension of ascending node: 132.1737°
argument of perigee: 190.3082°
revolutions per day: 14.31883427
mean anomaly at epoch: 322.6230°
orbit number at epoch: 84959

The dashed part of the orbit path shows where the satellite is in the earth's shadow,  

DLR